Location: Gradaro
(45.0833°N, 10.8833°E)
Time: 15:22:23
(UTC+00:00)

METEOR-M - Pass Details

Date: 29 November 2020
Orbit: 817 x 818 km, 98.5° (Epoch: 23 January)

Event Time Altitude Azimuth Distance (km) Brightness Sun altitude
Rises 03:51:41 0° 15° (NNE) 3,356 7.5 -27.8°
Reaches altitude 10° 03:54:04 10° 18° (NNE) 2,420 6.7 -27.4°
Maximum altitude 03:59:24 69° 102° (ESE) 876 4.3 -26.4°
Drops below altitude 10° 04:04:42 10° 186° (S) 2,404 6.6 -25.5°
Sets 04:07:03 0° 189° (S) 3,332 7.3 -25.1°
